Weather Roundup
Issued by NWS Chicago, IL

Home | Current Version | Previous Version | Text Only | Print | Product List | Glossary Off
Versions: 1 2 3 4 5 6 7 8 9 10 11 12 13 14 15 16 17 18 19 20 21 22 23 24 25 26 27 28 29 30 31 32 33 34 35 36 37 38 39 40 41 42 43 44 45 46 47 48 49 50

000
NZUS59 KLOT 022212
HRRLOT

CHICAGO AREA WEATHER ROUNDUP
NATIONAL WEATHER SERVICE CHICAGO/ROMEOVILLE IL
500 PM CDT THU JUL 02 2015

NOTE: "FAIR" INDICATES FEW OR NO CLOUDS BELOW 12,000 FEET WITH NO
SIGNIFICANT WEATHER AND/OR OBSTRUCTIONS TO VISIBILITY.

* THESE STATIONS ARE NOT UNDER NWS QUALITY CONTROL. THEY ALSO MAY NOT
  REPORT WEATHER SUCH AS PRECIPITATION OR FOG.

ILZ005-006-012>014-019>023-022300-
NORTHEAST ILLINOIS

CITY           SKY/WX    TMP DP  RH WIND       PRES   REMARKS
OHARE          MOSUNNY   66  53  63 NE12      29.99S
MIDWAY         PTSUNNY   70  55  59 NE14      29.98S
AURORA         PTSUNNY   71  53  52 NE13      29.97F
LANSING*       MOSUNNY   66  54  66 N10       29.97F
JOLIET*        MOSUNNY   73  59  62 NE12      29.95F
WAUKEGAN       SUNNY     62  52  69 VRB6      30.01R
DUPAGE AIRPORT MOSUNNY   69  53  56 NE13      29.97F
WHEELING       MOSUNNY   65  52  62 NE8       30.01S
KANKAKEE*      MOSUNNY   72  60  66 NE9G16    29.95S
MORRIS*        MOSUNNY   72  57  58 E7        29.94F
LEWIS AIRPORT* PTSUNNY   70  54  57 NE14      29.96F
NORTHERLY IS     N/A     62  55  77 N13         N/A
$$

WIZ051-052-058>065-066-070>072-022300-
SOUTHEAST WISCONSIN

CITY           SKY/WX    TMP DP  RH WIND       PRES   REMARKS
MILWAUKEE      MOSUNNY   63  48  58 NE9       30.02F
KENOSHA*       SUNNY     67  53  61 N8        30.01S
RACINE*        SUNNY     63  48  58 N8        30.03F
BURLINGTON     SUNNY     67  51  57 E6        30.01R
WAUKESHA       SUNNY     66  48  52 E7        30.03S
WEST BEND      SUNNY     68  43  40 NE9       30.02S
$$

INZ001>003-010>013-019-020-022300-
NORTHWEST INDIANA

CITY           SKY/WX    TMP DP  RH WIND       PRES   REMARKS
GARY*          PTSUNNY   66  59  77 N14       29.98S
MICHIGAN CITY* NOT AVBL
RENSSELAER*    NOT AVBL
VALPARAISO     MOSUNNY   72  60  66 N10       29.96S
$$

LMZ740>746-022300-
SOUTHERN LAKE MICHIGAN

STATION/POSITION TIME  SKY/WX   TEMP WIND        PRES    VSBY
                                AIR  DIR/SP/G
                 (UTC)          (F)  (DEG/KT/KT) (MB)    (MI)
HARRISON CRIB    2100            57  350/ 15/ 16   N/A
BURNHAM HARBOR   2200            62  350/ 11/ 15   N/A
CALUMET HARBOR   2100            61  330/ 11/ 16   N/A
BURNS HARBOR     2100            62   20/ 13/ 14 1015.6S
MICHIGAN CITY    2100            63  360/ 16/ 17   N/A
$$

ABBREVIATIONS USED IN REMARKS
   TC - TEMPERATURE IN CELSIUS
  WCI - WIND CHILL INDEX
   HX - HEAT INDEX
  VSB - VISIBILITY
$$


USA.gov is the U.S. government's official web portal to all federal, state and local government web resources and services.